Location: Cella
(44.7333°N, 10.5667°E)
Time: 16:31:20
(UTC+00:00)

USA 234 - Pass Details

Date: 03 March 2021
Orbit: 1102 x 1105 km, 123.0° (Epoch: 18 April)

Event Time Altitude Azimuth Distance (km) Brightness Sun altitude
Exits shadow 19:39:58 32° 42° (NE) 1,795 4.1 -27.4°
Maximum altitude 19:43:14 72° 326° (NW) 1,155 3.4 -27.9°
Drops below altitude 10° 19:49:44 10° 243° (WSW) 2,957 6.0 -29.0°
Sets 19:52:12 0° 242° (WSW) 3,913 6.7 -29.4°
